カタログに戻る

STARLINK-30860

運用中通信VLEO
NORAD 58234·PAYLOAD·🇺🇸 United States

打ち上げ Nov 8, 2023 から Cape Canaveral Space Force Station

Loading…

次のパス (今後24時間)

TLE

最新Source: CelesTrak SupGP

元期: Sep 14, 2026, 21:51 UTC

1 58234C 23171E   26257.91090278  .00001270  00000+0  46010-4 0  2575
2 58234  43.0007 296.2027 0001557 266.6284 260.6897 15.27576919    19

AllMySatでSTARLINK-30860をリアルタイム追跡

Download on the App Store